This is the latest recevied weather packets stored in our database for station/object KC5TIL-3. If no packets are shown the sender has not sent any weather packets the latest 10 day(s).
| Time | Temp. | Humidity | Pressure | Rain* | Wind** | Luminosity | Snow |
|---|---|---|---|---|---|---|---|
| 1787625063 | 36.11° C | 11% | 1009.8 hPa | 0 mm | 2.24 m/s, 183° | - | - |
| 1787624757 | 36.11° C | 11% | 1009.8 hPa | 0 mm | 2.24 m/s, 137° | - | - |
| 1787624459 | 36.11° C | 11% | 1009.8 hPa | 0 mm | 2.68 m/s, 229° | - | - |
| 1787624161 | 36.11° C | 11% | 1009.8 hPa | 0 mm | 3.13 m/s, 145° | - | - |
| 1787623859 | 36.11° C | 10% | 1009.8 hPa | 0 mm | 2.68 m/s, 146° | - | - |
| 1787623556 | 36.67° C | 10% | 1009.8 hPa | 0 mm | 3.13 m/s, 129° | - | - |
| 1787623258 | 36.67° C | 10% | 1009.8 hPa | 0 mm | 2.24 m/s, 168° | - | - |
| 1787622952 | 36.67° C | 10% | 1009.8 hPa | 0 mm | 2.24 m/s, 180° | - | - |
| 1787622654 | 37.22° C | 10% | 1009.8 hPa | 0 mm | 1.79 m/s, 160° | - | - |
| 1787622355 | 37.22° C | 10% | 1008.8 hPa | 0 mm | 2.24 m/s, 170° | - | - |
| 1787622054 | 37.22° C | 10% | 1008.8 hPa | 0 mm | 2.68 m/s, 194° | - | - |
| 1787621756 | 37.22° C | 10% | 1008.8 hPa | 0 mm | 2.68 m/s, 218° | - | - |
| 1787621458 | 37.78° C | 10% | 1008.8 hPa | 0 mm | 1.79 m/s, 158° | - | - |
| 1787621156 | 37.78° C | 10% | 1008.8 hPa | 0 mm | 2.68 m/s, 149° | - | - |
| 1787620858 | 37.78° C | 10% | 1008.8 hPa | 0 mm | 2.68 m/s, 211° | - | - |
| 1787620560 | 38.33° C | 10% | 1008.8 hPa | 0 mm | 3.13 m/s, 204° | - | - |
| 1787620259 | 38.33° C | 10% | 1008.8 hPa | 0 mm | 2.68 m/s, 195° | - | - |
| 1787619956 | 38.33° C | 10% | 1008.8 hPa | 0 mm | 2.24 m/s, 215° | - | - |
| 1787619658 | 38.33° C | 10% | 1008.8 hPa | 0 mm | 2.24 m/s, 195° | - | - |
| 1787619357 | 38.89° C | 10% | 1008.8 hPa | 0 mm | 2.24 m/s, 193° | - | - |
| 1787619058 | 38.89° C | 10% | 1008.8 hPa | 0 mm | 2.24 m/s, 177° | - | - |
| 1787618760 | 38.89° C | 10% | 1008.8 hPa | 0 mm | 2.68 m/s, 128° | - | - |
| 1787618454 | 38.89° C | 10% | 1008.8 hPa | 0 mm | 3.13 m/s, 173° | - | - |
| 1787618156 | 39.44° C | 10% | 1008.8 hPa | 0 mm | 3.13 m/s, 126° | - | - |
| 1787617857 | 39.44° C | 10% | 1008.8 hPa | 0 mm | 2.24 m/s, 190° | - | - |
* Rain latest hour (hover to see other rain measurements)
** Current wind speed in m/s (hover to see current wind gust speed)